Location: Salillas
(41.9950°N, 0.2228°W)
Time: 08:18:40
(UTC+00:00)

ADEOS Rocket - Pass Details

Date: 29 March 2020
Orbit: 858 x 1307 km, 98.7° (Epoch: 03 June)

Event Time Altitude Azimuth Distance (km) Brightness Sun altitude
Rises 19:13:00 0° 9° (N) 4,046 6.3 -9.9°
Reaches altitude 10° 19:15:46 10° 5° (N) 3,017 5.7 -10.4°
Maximum altitude 19:22:19 52° 292° (WNW) 1,276 4.1 -11.5°
Drops below altitude 10° 19:28:11 10° 217° (SW) 2,704 5.6 -12.6°
Sets 19:30:34 0° 212° (SSW) 3,594 6.2 -13.0°
